Time,TemperatureF,DewpointF,PressureIn,WindDirection,WindDirectionDegrees,WindSpeedMPH,WindSpeedGustMPH,Humidity,HourlyPrecipIn,Conditions,Clouds,dailyrainin,SoftwareType,DateUTC
2013-04-17 00:03:00,49.0,49.0,-100.00,SW,215,0.0,0.0,96,0.00,,,-99.99,,2013-04-17 04:03:00,
2013-04-17 00:13:00,49.0,48.0,-100.00,SSW,200,0.0,0.0,96,0.00,,,-99.99,,2013-04-17 04:13:00,
2013-04-17 00:22:00,49.0,48.0,-100.00,SSW,200,0.0,0.0,96,0.00,,,-99.99,,2013-04-17 04:22:00,
2013-04-17 00:33:00,49.0,48.0,-100.00,SE,140,0.0,0.0,96,0.00,,,-99.99,,2013-04-17 04:33:00,
2013-04-17 00:42:00,48.0,48.0,-100.00,SE,130,0.0,0.0,96,0.00,,,-99.99,,2013-04-17 04:42:00,
2013-04-17 00:52:00,48.0,47.0,-100.00,SE,130,0.0,0.0,96,0.00,,,-99.99,,2013-04-17 04:52:00,
2013-04-17 01:03:00,48.0,47.0,-100.00,SE,130,0.0,0.0,96,0.00,,,-99.99,,2013-04-17 05:03:00,
2013-04-17 01:12:00,48.0,47.0,-100.00,SE,125,0.0,0.0,96,0.00,,,-99.99,,2013-04-17 05:12:00,
2013-04-17 01:22:00,48.0,47.0,-100.00,North,10,0.0,0.0,96,0.00,,,-99.99,,2013-04-17 05:22:00,
2013-04-17 01:32:00,48.0,47.0,-100.00,North,10,0.0,0.0,97,0.00,,,-99.99,,2013-04-17 05:32:00,
2013-04-17 01:42:00,48.0,47.0,-100.00,WNW,290,0.0,3.0,97,0.00,,,-99.99,,2013-04-17 05:42:00,
2013-04-17 01:52:00,47.0,47.0,-100.00,WSW,245,0.0,2.0,97,0.00,,,-99.99,,2013-04-17 05:52:00,
2013-04-17 02:02:00,48.0,47.0,-100.00,SSW,200,0.0,0.0,97,0.00,,,-99.99,,2013-04-17 06:02:00,
2013-04-17 02:12:00,48.0,47.0,-100.00,SSW,200,0.0,0.0,97,0.00,,,-99.99,,2013-04-17 06:12:00,
2013-04-17 02:22:00,48.0,47.0,-100.00,SSW,200,0.0,0.0,97,0.00,,,-99.99,,2013-04-17 06:22:00,
2013-04-17 02:32:00,48.0,47.0,-100.00,South,190,0.0,0.0,97,0.00,,,-99.99,,2013-04-17 06:32:00,
2013-04-17 02:42:00,48.0,47.0,-100.00,NE,55,0.0,2.0,97,0.00,,,-99.99,,2013-04-17 06:42:00,
2013-04-17 02:52:00,48.0,47.0,-100.00,NE,55,0.0,1.0,97,0.00,,,-99.99,,2013-04-17 06:52:00,
2013-04-17 03:02:00,48.0,47.0,-100.00,WNW,300,0.0,2.0,97,0.00,,,-99.99,,2013-04-17 07:02:00,
2013-04-17 03:12:00,48.0,47.0,-100.00,WNW,300,0.0,0.0,97,0.00,,,-99.99,,2013-04-17 07:12:00,
2013-04-17 03:22:00,48.0,47.0,-100.00,NW,325,0.0,0.0,97,0.00,,,-99.99,,2013-04-17 07:22:00,
2013-04-17 03:32:00,48.0,48.0,-100.00,NNW,335,0.0,0.0,97,0.00,,,-99.99,,2013-04-17 07:32:00,
2013-04-17 03:42:00,48.0,47.0,-100.00,North,0,2.0,5.0,97,9.06,,,-99.99,,2013-04-17 07:42:00,
2013-04-17 03:52:00,48.0,47.0,-100.00,North,0,3.0,6.0,97,0.00,,,-99.99,,2013-04-17 07:52:00,
2013-04-17 04:02:00,47.0,47.0,-100.00,NNE,20,2.0,9.0,97,0.00,,,-99.99,,2013-04-17 08:02:00,
2013-04-17 04:12:00,47.0,47.0,-100.00,NNE,30,2.0,6.0,97,0.00,,,-99.99,,2013-04-17 08:12:00,
2013-04-17 04:22:00,48.0,47.0,-100.00,North,5,1.0,4.0,97,0.00,,,-99.99,,2013-04-17 08:22:00,
2013-04-17 04:32:00,48.0,47.0,-100.00,North,0,2.0,6.0,97,0.00,,,-99.99,,2013-04-17 08:32:00,
2013-04-17 04:42:00,48.0,47.0,-100.00,North,0,4.0,6.0,97,0.00,,,-99.99,,2013-04-17 08:42:00,
2013-04-17 04:52:00,48.0,47.0,-100.00,North,0,3.0,6.0,97,0.00,,,-99.99,,2013-04-17 08:52:00,
2013-04-17 05:02:00,48.0,47.0,-100.00,North,10,2.0,6.0,97,0.00,,,-99.99,,2013-04-17 09:02:00,
2013-04-17 05:12:00,48.0,47.0,-100.00,North,0,2.0,8.0,97,0.00,,,-99.99,,2013-04-17 09:12:00,
2013-04-17 05:22:00,48.0,47.0,-100.00,North,10,2.0,4.0,97,0.00,,,-99.99,,2013-04-17 09:22:00,
2013-04-17 05:33:00,48.0,47.0,-100.00,North,0,4.0,7.0,97,0.00,,,-99.99,,2013-04-17 09:33:00,
2013-04-17 05:42:00,48.0,47.0,-100.00,North,0,2.0,6.0,97,0.00,,,-99.99,,2013-04-17 09:42:00,
2013-04-17 05:52:00,48.0,47.0,-100.00,North,10,3.0,10.0,97,0.00,,,-99.99,,2013-04-17 09:52:00,
2013-04-17 06:03:00,48.0,47.0,-100.00,NNE,25,5.0,8.0,97,0.00,,,-99.99,,2013-04-17 10:03:00,
2013-04-17 06:12:00,48.0,47.0,-100.00,North,0,6.0,11.0,97,0.00,,,-99.99,,2013-04-17 10:12:00,
2013-04-17 06:23:00,48.0,47.0,-100.00,NNE,20,6.0,11.0,97,0.00,,,-99.99,,2013-04-17 10:23:00,
2013-04-17 06:32:00,48.0,47.0,-100.00,NNE,15,4.0,9.0,97,0.00,,,-99.99,,2013-04-17 10:32:00,
2013-04-17 06:42:00,47.0,46.0,-100.00,NNE,15,9.0,17.0,97,0.00,,,-99.99,,2013-04-17 10:42:00,
2013-04-17 06:52:00,46.0,46.0,-100.00,North,10,4.0,16.0,97,0.00,,,-99.99,,2013-04-17 10:52:00,
2013-04-17 07:02:00,46.0,45.0,-100.00,NNE,20,9.0,14.0,97,0.00,,,-99.99,,2013-04-17 11:02:00,
2013-04-17 07:12:00,46.0,45.0,-100.00,NNE,20,5.0,11.0,97,0.00,,,-99.99,,2013-04-17 11:12:00,
2013-04-17 07:22:00,45.0,45.0,-100.00,NNE,20,6.0,9.0,97,0.00,,,-99.99,,2013-04-17 11:22:00,
2013-04-17 07:32:00,45.0,45.0,-100.00,North,5,6.0,10.0,97,0.00,,,-99.99,,2013-04-17 11:32:00,
2013-04-17 07:42:00,45.0,45.0,-100.00,North,0,4.0,9.0,97,0.00,,,-99.99,,2013-04-17 11:42:00,
2013-04-17 07:52:00,45.0,44.0,-100.00,NNE,20,6.0,12.0,97,0.00,,,-99.99,,2013-04-17 11:52:00,
2013-04-17 08:03:00,45.0,44.0,-100.00,NNE,30,6.0,12.0,97,0.00,,,-99.99,,2013-04-17 12:03:00,
2013-04-17 08:12:00,44.0,44.0,-100.00,NNE,25,7.0,12.0,97,0.00,,,-99.99,,2013-04-17 12:12:00,
2013-04-17 08:22:00,44.0,43.0,-100.00,North,5,7.0,12.0,97,0.00,,,-99.99,,2013-04-17 12:22:00,
2013-04-17 08:32:00,44.0,43.0,-100.00,North,10,4.0,14.0,97,0.00,,,-99.99,,2013-04-17 12:32:00,
2013-04-17 08:42:00,44.0,43.0,-100.00,NE,50,6.0,15.0,97,0.00,,,-99.99,,2013-04-17 12:42:00,
2013-04-17 08:52:00,44.0,43.0,-100.00,NNE,30,6.0,13.0,96,0.00,,,-99.99,,2013-04-17 12:52:00,
2013-04-17 09:02:00,44.0,42.0,-100.00,North,5,6.0,14.0,92,0.00,,,-99.99,,2013-04-17 13:02:00,
2013-04-17 09:12:00,45.0,42.0,-100.00,NE,50,9.0,14.0,87,0.00,,,-99.99,,2013-04-17 13:12:00,
2013-04-17 09:22:00,46.0,41.0,-100.00,NE,40,7.0,16.0,81,0.00,,,-99.99,,2013-04-17 13:22:00,
2013-04-17 09:32:00,47.0,40.0,-100.00,NNE,20,7.0,12.0,77,0.00,,,-99.99,,2013-04-17 13:32:00,
2013-04-17 09:42:00,47.0,40.0,-100.00,NE,35,7.0,16.0,75,0.00,,,-99.99,,2013-04-17 13:42:00,
2013-04-17 09:52:00,48.0,40.0,-100.00,NNE,30,6.0,13.0,75,0.00,,,-99.99,,2013-04-17 13:52:00,
2013-04-17 10:02:00,49.0,41.0,-100.00,ENE,60,6.0,14.0,74,0.00,,,-99.99,,2013-04-17 14:02:00,
2013-04-17 10:12:00,50.0,42.0,-100.00,ENE,70,5.0,14.0,73,0.00,,,-99.99,,2013-04-17 14:12:00,
2013-04-17 10:22:00,50.0,41.0,-100.00,NE,35,6.0,14.0,73,0.00,,,-99.99,,2013-04-17 14:22:00,
2013-04-17 10:32:00,50.0,42.0,-100.00,NE,50,6.0,13.0,73,0.00,,,-99.99,,2013-04-17 14:32:00,
2013-04-17 10:42:00,52.0,43.0,-100.00,ENE,70,6.0,15.0,72,0.00,,,-99.99,,2013-04-17 14:42:00,
2013-04-17 10:52:00,52.0,43.0,-100.00,ENE,60,4.0,12.0,70,0.00,,,-99.99,,2013-04-17 14:52:00,
2013-04-17 11:02:00,52.0,42.0,-100.00,NE,50,7.0,12.0,69,0.00,,,-99.99,,2013-04-17 15:02:00,
2013-04-17 11:12:00,52.0,42.0,-100.00,NE,45,6.0,14.0,69,0.00,,,-99.99,,2013-04-17 15:12:00,
2013-04-17 11:22:00,53.0,43.0,-100.00,NNE,20,6.0,8.0,69,0.00,,,-99.99,,2013-04-17 15:22:00,
2013-04-17 11:33:00,54.0,44.0,-100.00,NNE,25,4.0,11.0,69,0.00,,,-99.99,,2013-04-17 15:33:00,
2013-04-17 11:43:00,53.0,44.0,-100.00,NNE,25,7.0,10.0,68,0.00,,,-99.99,,2013-04-17 15:43:00,
2013-04-17 11:53:00,54.0,44.0,-100.00,NNE,20,7.0,11.0,67,0.00,,,-99.99,,2013-04-17 15:53:00,
2013-04-17 12:03:00,55.0,44.0,-100.00,NE,40,7.0,12.0,67,0.00,,,-99.99,,2013-04-17 16:03:00,
2013-04-17 12:12:00,56.0,45.0,-100.00,NE,45,6.0,9.0,66,0.00,,,-99.99,,2013-04-17 16:12:00,
2013-04-17 12:23:00,55.0,44.0,-100.00,NE,45,6.0,12.0,66,0.00,,,-99.99,,2013-04-17 16:23:00,
2013-04-17 12:32:00,56.0,44.0,-100.00,NE,45,8.0,15.0,65,0.00,,,-99.99,,2013-04-17 16:32:00,
2013-04-17 12:42:00,57.0,45.0,-100.00,NE,55,5.0,12.0,63,0.00,,,-99.99,,2013-04-17 16:42:00,
2013-04-17 12:52:00,58.0,45.0,-100.00,NE,40,6.0,13.0,61,0.00,,,-99.99,,2013-04-17 16:52:00,
2013-04-17 13:02:00,58.0,45.0,-100.00,NE,40,6.0,12.0,62,0.00,,,-99.99,,2013-04-17 17:02:00,
2013-04-17 13:12:00,57.0,45.0,-100.00,NE,35,5.0,11.0,63,0.00,,,-99.99,,2013-04-17 17:12:00,
2013-04-17 13:22:00,57.0,45.0,-100.00,NE,35,7.0,12.0,64,0.00,,,-99.99,,2013-04-17 17:22:00,
2013-04-17 13:33:00,57.0,45.0,-100.00,North,5,7.0,13.0,64,0.00,,,-99.99,,2013-04-17 17:33:00,
2013-04-17 13:42:00,57.0,45.0,-100.00,NE,45,6.0,11.0,63,0.00,,,-99.99,,2013-04-17 17:42:00,
2013-04-17 13:52:00,58.0,45.0,-100.00,ENE,70,6.0,12.0,63,0.00,,,-99.99,,2013-04-17 17:52:00,
2013-04-17 14:02:00,58.0,46.0,-100.00,NNE,15,6.0,10.0,64,0.00,,,-99.99,,2013-04-17 18:02:00,
2013-04-17 14:12:00,58.0,46.0,-100.00,NNE,25,7.0,13.0,63,0.00,,,-99.99,,2013-04-17 18:12:00,
2013-04-17 14:22:00,57.0,45.0,-100.00,NNE,20,7.0,16.0,63,0.00,,,-99.99,,2013-04-17 18:22:00,
2013-04-17 14:32:00,57.0,45.0,-100.00,NNE,25,6.0,12.0,63,0.00,,,-99.99,,2013-04-17 18:32:00,
2013-04-17 14:42:00,58.0,45.0,-100.00,North,0,6.0,12.0,62,0.00,,,-99.99,,2013-04-17 18:42:00,
2013-04-17 14:52:00,57.0,44.0,-100.00,NNE,25,7.0,15.0,62,0.00,,,-99.99,,2013-04-17 18:52:00,
2013-04-17 15:02:00,57.0,44.0,-100.00,NE,40,6.0,14.0,62,0.00,,,-99.99,,2013-04-17 19:02:00,
2013-04-17 15:12:00,56.0,44.0,-100.00,NE,40,6.0,12.0,63,0.00,,,-99.99,,2013-04-17 19:12:00,
2013-04-17 15:22:00,57.0,44.0,-100.00,NE,45,7.0,12.0,62,0.00,,,-99.99,,2013-04-17 19:22:00,
2013-04-17 15:32:00,56.0,44.0,-100.00,NNE,25,6.0,12.0,62,0.00,,,-99.99,,2013-04-17 19:32:00,
2013-04-17 15:42:00,57.0,44.0,-100.00,NNE,25,8.0,12.0,61,0.00,,,-99.99,,2013-04-17 19:42:00,
2013-04-17 15:52:00,57.0,44.0,-100.00,ENE,60,9.0,14.0,60,0.00,,,-99.99,,2013-04-17 19:52:00,
2013-04-17 16:03:00,57.0,44.0,-100.00,NE,40,7.0,13.0,60,0.00,,,-99.99,,2013-04-17 20:03:00,
2013-04-17 16:12:00,58.0,44.0,-100.00,NNE,25,8.0,15.0,59,0.00,,,-99.99,,2013-04-17 20:12:00,
2013-04-17 16:22:00,58.0,44.0,-100.00,NNE,25,6.0,12.0,59,0.00,,,-99.99,,2013-04-17 20:22:00,
2013-04-17 16:32:00,57.0,43.0,-100.00,NNE,15,7.0,14.0,59,0.00,,,-99.99,,2013-04-17 20:32:00,
2013-04-17 16:42:00,57.0,43.0,-100.00,NNE,15,7.0,11.0,59,0.00,,,-99.99,,2013-04-17 20:42:00,
2013-04-17 16:52:00,56.0,42.0,-100.00,NNE,30,7.0,12.0,59,0.00,,,-99.99,,2013-04-17 20:52:00,
2013-04-17 17:03:00,56.0,42.0,-100.00,NE,45,7.0,12.0,59,0.00,,,-99.99,,2013-04-17 21:03:00,
2013-04-17 17:12:00,56.0,42.0,-100.00,NNE,20,7.0,12.0,59,0.00,,,-99.99,,2013-04-17 21:12:00,
2013-04-17 17:22:00,55.0,41.0,-100.00,NE,40,7.0,14.0,59,0.00,,,-99.99,,2013-04-17 21:22:00,
2013-04-17 17:33:00,55.0,41.0,-100.00,NE,45,7.0,14.0,58,0.00,,,-99.99,,2013-04-17 21:33:00,
2013-04-17 17:42:00,55.0,41.0,-100.00,NE,40,7.0,12.0,58,0.00,,,-99.99,,2013-04-17 21:42:00,
2013-04-17 17:53:00,55.0,40.0,-100.00,NE,35,7.0,14.0,56,0.00,,,-99.99,,2013-04-17 21:53:00,
2013-04-17 18:02:00,55.0,39.0,-100.00,NE,35,6.0,14.0,55,0.00,,,-99.99,,2013-04-17 22:02:00,
2013-04-17 18:12:00,55.0,39.0,-100.00,NE,40,7.0,12.0,55,0.00,,,-99.99,,2013-04-17 22:12:00,
2013-04-17 18:22:00,55.0,39.0,-100.00,ENE,60,10.0,14.0,54,0.00,,,-99.99,,2013-04-17 22:22:00,
2013-04-17 18:33:00,54.0,39.0,-100.00,NE,45,6.0,15.0,55,0.00,,,-99.99,,2013-04-17 22:33:00,
2013-04-17 18:42:00,55.0,40.0,-100.00,NE,50,4.0,14.0,56,0.00,,,-99.99,,2013-04-17 22:42:00,
2013-04-17 18:53:00,55.0,40.0,-100.00,NE,40,7.0,11.0,57,0.00,,,-99.99,,2013-04-17 22:53:00,
2013-04-17 19:02:00,55.0,41.0,-100.00,NNE,30,6.0,11.0,58,0.00,,,-99.99,,2013-04-17 23:02:00,
2013-04-17 19:12:00,55.0,41.0,-100.00,NNE,25,4.0,9.0,58,0.00,,,-99.99,,2013-04-17 23:12:00,
2013-04-17 19:22:00,55.0,41.0,-100.00,NNE,20,4.0,10.0,59,0.00,,,-99.99,,2013-04-17 23:22:00,
2013-04-17 19:32:00,55.0,41.0,-100.00,NE,40,4.0,10.0,59,0.00,,,-99.99,,2013-04-17 23:32:00,
2013-04-17 19:42:00,55.0,42.0,-100.00,NE,45,6.0,10.0,60,0.00,,,-99.99,,2013-04-17 23:42:00,
2013-04-17 19:52:00,55.0,41.0,-100.00,North,0,4.0,10.0,60,0.00,,,-99.99,,2013-04-17 23:52:00,
2013-04-17 20:02:00,54.0,41.0,-100.00,NE,40,3.0,8.0,61,0.00,,,-99.99,,2013-04-18 00:02:00,
2013-04-17 20:12:00,54.0,42.0,-100.00,NE,40,4.0,7.0,62,0.00,,,-99.99,,2013-04-18 00:12:00,
2013-04-17 20:22:00,54.0,42.0,-100.00,NE,45,7.0,9.0,62,0.00,,,-99.99,,2013-04-18 00:22:00,
2013-04-17 20:32:00,55.0,42.0,-100.00,SE,125,1.0,9.0,62,0.00,,,-99.99,,2013-04-18 00:32:00,
2013-04-17 20:42:00,55.0,42.0,-100.00,NE,50,2.0,9.0,63,0.00,,,-99.99,,2013-04-18 00:42:00,
2013-04-17 20:52:00,55.0,43.0,-100.00,NE,50,4.0,7.0,63,0.00,,,-99.99,,2013-04-18 00:52:00,
2013-04-17 21:02:00,55.0,43.0,-100.00,ENE,65,5.0,8.0,65,0.00,,,-99.99,,2013-04-18 01:02:00,
2013-04-17 21:12:00,55.0,43.0,-100.00,NE,50,4.0,9.0,65,0.00,,,-99.99,,2013-04-18 01:12:00,
2013-04-17 21:22:00,55.0,43.0,-100.00,ENE,65,3.0,7.0,65,0.00,,,-99.99,,2013-04-18 01:22:00,
2013-04-17 21:32:00,55.0,43.0,-100.00,ENE,60,4.0,7.0,65,0.00,,,-99.99,,2013-04-18 01:32:00,
2013-04-17 21:42:00,54.0,44.0,-100.00,ENE,65,3.0,6.0,67,0.00,,,-99.99,,2013-04-18 01:42:00,
2013-04-17 21:52:00,54.0,44.0,-100.00,ENE,60,3.0,6.0,68,0.00,,,-99.99,,2013-04-18 01:52:00,
2013-04-17 22:02:00,54.0,45.0,-100.00,East,80,4.0,6.0,70,0.00,,,-99.99,,2013-04-18 02:02:00,
2013-04-17 22:12:00,54.0,45.0,-100.00,East,90,3.0,7.0,71,0.00,,,-99.99,,2013-04-18 02:12:00,
2013-04-17 22:22:00,54.0,45.0,-100.00,East,90,2.0,4.0,72,0.00,,,-99.99,,2013-04-18 02:22:00,
2013-04-17 22:32:00,54.0,46.0,-100.00,East,85,1.0,2.0,74,0.00,,,-99.99,,2013-04-18 02:32:00,
2013-04-17 22:42:00,54.0,46.0,-100.00,East,85,1.0,2.0,74,0.00,,,-99.99,,2013-04-18 02:42:00,
2013-04-17 22:52:00,54.0,46.0,-100.00,East,85,1.0,2.0,74,0.00,,,-99.99,,2013-04-18 02:52:00,
2013-04-17 23:02:00,54.0,47.0,-100.00,North,355,0.0,0.0,78,0.00,,,-99.99,,2013-04-18 03:02:00,
2013-04-17 23:12:00,54.0,48.0,-100.00,NW,320,0.0,0.0,79,0.00,,,-99.99,,2013-04-18 03:12:00,
2013-04-17 23:22:00,53.0,48.0,-100.00,NW,315,3.0,4.0,81,0.00,,,-99.99,,2013-04-18 03:22:00,
2013-04-17 23:33:00,53.0,48.0,-100.00,WNW,295,1.0,7.0,82,0.00,,,-99.99,,2013-04-18 03:33:00,
2013-04-17 23:43:00,52.0,47.0,-100.00,NNW,340,0.0,1.0,82,0.00,,,-99.99,,2013-04-18 03:43:00,
2013-04-17 23:53:00,51.0,46.0,-100.00,North,0,2.0,6.0,82,0.00,,,-99.99,,2013-04-18 03:53:00,